{"data":{"norad_id":64428,"intl_designator":"2025-129S","name":"STARLINK-34495","alt_names":[],"object_type":"PAYLOAD","status":"ACTIVE","operator":null,"country":"US","launch_date":"2025-06-17","launch_site_code":"AFWTR","launch_vehicle":null,"mission":null,"orbit_class":"UNKNOWN","rcs_meters":null,"size_class":null,"mass_kg":null,"dimensions":null,"purposes":["comms"],"wikipedia_slug":null,"has_3d_model":false,"image_url":null,"decayed_at":null,"tle_current":{"epoch":"2026-09-20T12:45:09.421920Z","epoch_age_seconds":131525,"freshness":"FRESH","line1":"1 64428U 25129S   26263.53135905  .00008016  00000+0  28311-3 0  9995","line2":"2 64428  70.0005 300.7641 0003580 274.9442  85.1324 15.29566570 70531","mean_motion":15.2956657,"eccentricity":0.000358,"inclination_deg":70.0005,"raan_deg":300.7641,"arg_perigee_deg":274.9442,"mean_anomaly_deg":85.1324,"bstar":0.00028311,"rev_number":7053,"period_min":94.14431697471,"perigee_km":474.65285252647,"apogee_km":479.56120725187,"semimajor_km":6855.2440298892,"source":"CELESTRAK","updated_at":"2026-09-21T09:00:35.349196Z"}}}